SCP
0 0 0 0 0 0 0 0 0 1 1 2 3 3 3 3 5 5 6 7 8 9 9 9 9 8 6 6 5 5 6 6 6 6 6 5 4 4 4 4 4 4 4 4
0 0 0 0 0 0 0 0 0 1 1 2 3 3 3 3 4 5 7 8 8 9 11 12 11 10 8 6 5 4 5 5 5 5 5 4 4 3 4 4 3 3 3 3
0 0 0 0 0 0 0 0 0 1 1 2 3 3 3 3 4 6 7 8 7 9 13 16 15 12 9 6 4 4 5 5 5 5 4 4 4 3 3 3 3 2 2 3
0 0 0 0 0 0 0 0 0 0 1 1 2 2 2 3 4 6 7 7 6 9 13 16 16 13 9 5 4 4 5 6 6 6 5 5 4 3 3 2 2 3 3 2
0 0 0 0 0 0 0 0 0 0 0 1 1 2 2 3 5 6 6 6 5 7 10 13 13 11 8 5 5 5 6 7 7 7 6 6 5 4 3 3 3 3 3 3
0 0 0 0 0 0 0 0 0 0 0 0 1 1 2 3 4 5 5 5 5 6 8 9 9 8 7 6 6 7 7 8 8 8 8 6 5 4 4 3 3 3 3 3
0 0 0 0 0 0 0 0 0 0 0 0 1 1 2 2 3 4 6 7 6 6 7 6 6 6 7 8 8 8 8 9 9 9 9 7 6 5 5 4 4 4 3 3
0 0 0 0 0 0 0 0 0 0 0 0 1 1 1 2 3 5 8 8 7 6 5 4 4 5 6 7 8 8 9 9 9 9 9 8 6 6 5 5 5 5 4 4
0 0 0 0 0 0 0 0 0 0 0 0 1 1 1 1 3 5 7 7 7 6 5 4 3 3 4 4 5 6 7 8 8 9 8 7 6 6 5 5 6 5 5 5
0 0 0 0 0 0 0 0 0 0 0 0 0 1 1 2 3 5 6 6 5 6 6 4 3 2 3 4 5 5 6 7 8 8 8 7 6 6 5 6 6 6 6 5
0 0 0 0 0 0 0 0 0 0 0 0 0 0 1 2 4 5 5 5 5 6 6 5 3 3 3 4 5 6 6 7 7 7 8 8 7 6 6 6 6 6 6 6
0 0 0 0 0 0 0 0 0 0 0 0 0 1 2 3 4 5 4 4 4 5 6 6 4 3 3 3 4 6 6 6 6 7 7 8 8 7 7 6 6 6 6 5
0 0 0 0 0 0 0 0 0 0 0 0 1 2 3 3 3 3 2 2 3 4 5 5 4 3 2 2 2 3 5 5 6 6 6 6 7 7 7 6 6 6 5 5
0 0 0 0 0 0 0 0 0 0 0 0 1 2 3 3 3 3 2 2 3 4 5 4 3 2 2 2 2 2 3 4 5 5 5 5 6 7 7 6 5 5 5 4
0 0 0 0 0 0 1 1 1 0 0 0 2 3 3 3 4 3 2 3 3 4 4 3 3 3 3 3 3 3 3 3 4 4 4 5 6 6 6 5 5 4 4 4
0 0 0 0 0 1 1 1 1 1 1 1 2 3 3 4 4 4 4 4 4 4 4 3 3 3 3 3 3 3 3 3 3 3 4 5 6 5 5 4 3 3 3 3
0 0 0 0 0 1 1 1 1 1 1 2 3 3 3 4 4 4 5 6 5 4 4 4 4 4 4 4 4 4 4 4 3 3 4 5 5 5 4 3 3 3 3 3
0 0 0 0 0 1 1 1 1 1 1 2 2 3 4 4 3 3 4 4 4 3 3 3 4 4 5 5 6 6 6 8 12 13 8 4 5 4 4 4 4 4 4 4
0 0 0 0 0 1 1 2 1 1 1 2 2 3 3 3 2 2 2 2 2 2 2 2 2 3 4 4 5 6 6 10 20 22 11 5 5 5 5 5 5 5 5 5
0 0 0 0 0 1 1 1 1 1 1 1 2 2 2 2 2 2 2 2 1 1 1 1 1 1 2 2 3 4 4 7 13 14 8 5 5 5 4 5 5 5 5 5
0 0 0 0 0 0 0 1 1 1 1 1 1 1 1 1 1 2 2 2 1 1 1 1 1 1 1 1 1 1 2 2 3 3 3 4 4 4 4 4 5 5 5 5
0 0 0 0 0 0 0 1 1 1 0 1 1 1 1 2 2 2 3 2 1 1 1 1 1 1 1 1 1 1 1 1 1 2 2 3 3 3 4 4 4 4 5 5
0 0 0 0 0 0 0 1 1 0 0 1 1 1 1 2 2 2 3 2 2 1 1 1 1 1 1 1 1 1 1 1 1 1 2 2 3 3 3 4 4 4 4 4
0 0 0 0 0 0 1 1 1 0 0 0 1 1 1 1 2 2 2 2 1 1 1 1 2 2 2 2 2 1 1 1 1 1 1 2 2 3 3 4 4 5 5 5
0 0 0 0 0 1 1 1 1 1 0 0 1 1 1 2 2 1 1 1 1 1 1 1 2 2 2 3 3 2 2 1 1 1 1 1 1 2 3 4 4 5 5 4
0 0 0 0 0 1 1 1 1 1 1 0 0 1 2 2 2 1 1 1 1 1 1 1 2 2 3 3 4 3 3 2 1 1 1 1 1 2 3 4 4 4 4 4
Wind_Speed
3 2 7 10 10 8 6 6 8 10 7 2 3 4 5 3 5 7 7 9 8 7 7 8 9 9 9 7 7 6 6 5 4 4 4 3 3 2 2 2 3 3 3 3
2 8 13 9 7 7 7 8 9 9 5 2 2 4 3 3 5 7 9 9 9 7 6 7 8 8 7 8 7 6 5 5 5 4 3 3 3 2 2 1 2 3 3 3
10 9 7 7 7 8 8 7 7 6 5 3 1 3 3 2 2 4 6 8 9 9 9 9 9 8 8 8 7 7 6 5 4 4 3 3 2 2 1 1 1 2 3 3
8 9 7 7 8 7 9 8 6 5 2 4 2 2 5 2 1 3 5 6 7 8 8 8 9 9 9 7 6 6 5 5 3 4 4 5 3 2 2 2 1 1 2 2
7 6 6 8 10 7 8 7 5 5 3 2 2 2 5 1 2 3 5 7 8 8 9 9 9 9 8 7 6 6 6 6 4 4 4 4 3 2 1 1 2 1 1 1
9 6 6 8 7 6 5 2 3 1 2 3 5 4 4 4 5 5 5 7 8 8 8 7 6 7 6 5 6 6 6 5 5 5 5 4 4 3 3 2 2 1 0 0
7 7 5 2 2 4 1 4 3 4 2 6 3 3 5 5 5 8 10 8 7 8 8 7 6 6 6 6 7 6 6 5 4 5 4 4 4 4 4 3 3 2 1 1
3 7 5 3 5 5 4 8 7 5 5 5 1 3 3 2 2 4 8 9 9 8 7 7 6 6 7 7 7 6 6 5 5 5 4 3 3 3 2 3 3 3 3 3
3 6 5 4 3 5 3 4 8 6 2 1 3 2 2 2 3 4 5 7 8 8 8 7 6 5 5 7 6 7 7 5 5 5 4 3 3 3 3 2 3 2 2 2
3 4 6 5 2 2 5 5 4 5 4 3 3 3 4 2 1 2 3 5 6 6 7 6 5 5 5 5 5 5 5 5 4 4 4 3 3 3 3 3 3 3 3 2
1 2 6 4 1 3 1 1 3 3 5 6 4 5 4 7 6 5 4 6 7 7 7 6 5 5 5 5 5 4 4 3 3 3 3 3 3 2 2 3 3 3 3 3
1 3 3 6 5 2 4 3 5 4 3 4 4 5 1 4 4 5 6 7 7 7 6 6 6 5 5 5 4 3 3 3 4 3 3 3 2 2 2 2 3 3 3 3
1 3 2 7 6 5 2 0 2 4 3 3 4 4 1 2 2 3 6 6 6 7 6 6 6 5 5 4 4 3 2 2 3 3 3 2 2 2 2 3 3 3 3 3
3 3 4 5 4 3 3 3 2 3 3 3 4 4 2 0 2 3 4 6 6 6 7 6 5 4 4 4 4 3 2 1 3 3 3 3 2 3 3 3 3 3 3 3
4 2 1 3 2 1 2 4 3 1 3 5 4 4 4 3 3 4 5 6 6 6 7 7 5 4 4 3 3 3 2 1 2 2 3 3 3 2 2 2 2 3 3 3
3 2 1 4 2 3 4 5 4 3 1 2 4 1 2 1 3 3 4 7 7 5 6 6 5 4 4 4 3 3 2 2 2 2 2 2 2 2 2 2 2 2 2 3
1 2 1 3 3 3 3 4 2 3 3 2 3 2 1 3 2 2 3 4 6 5 5 5 5 5 4 3 3 2 2 1 2 2 2 2 3 3 3 3 2 2 2 3
3 2 2 1 2 1 3 2 4 5 5 4 4 3 3 1 1 1 2 4 4 4 5 5 4 3 3 3 2 2 2 2 2 1 1 2 2 2 2 2 3 3 2 3
5 4 2 2 1 1 2 4 2 2 3 3 4 4 3 3 4 3 2 2 3 3 4 4 3 3 3 3 3 3 2 1 1 1 1 2 2 2 2 2 3 3 2 3
4 5 4 2 2 2 3 6 5 4 2 2 3 3 3 4 2 2 3 1 2 3 2 3 3 2 2 2 2 3 2 1 1 2 2 2 3 3 3 4 4 3 3 3
4 3 2 2 2 2 4 7 5 2 3 2 0 1 2 1 4 3 1 1 1 3 3 3 3 2 2 2 3 2 1 1 2 2 2 2 3 3 4 3 3 2 2 2
1 1 0 2 1 3 5 4 2 2 2 2 0 1 1 0 0 0 0 1 1 1 2 2 2 2 1 2 3 2 2 3 1 1 2 2 3 3 2 2 3 2 2 2
1 2 2 2 3 3 2 1 1 1 0 2 1 0 1 1 1 1 1 1 1 1 2 2 2 2 1 1 2 3 3 2 1 1 2 3 3 3 2 2 3 2 2 2
2 2 2 1 1 2 2 2 2 1 1 2 1 1 1 1 2 2 1 1 1 1 2 2 2 2 2 2 2 3 3 2 2 2 3 3 2 3 2 2 2 2 2 2
3 2 1 1 3 3 4 3 3 3 3 3 3 1 1 1 2 2 2 2 2 2 2 2 3 3 4 3 3 3 2 2 2 2 2 2 2 2 2 2 2 3 3 4
2 1 1 3 4 2 4 4 3 3 3 3 3 3 2 1 2 2 2 3 3 3 3 2 3 3 4 3 3 3 2 2 2 2 2 2 2 2 2 2 2 3 3 4
Wind_Direction
229 154 226 230 213 213 229 252 268 267 268 271 245 240 243 221 168 164 161 157 149 153 148 142 144 140 135 133 140 142 145 153 150 150 156 152 161 167 165 166 162 164 172 169
311 243 236 234 234 232 240 257 270 282 285 268 245 264 254 209 177 171 166 159 150 141 140 141 139 136 138 144 145 144 151 154 160 163 168 161 153 164 178 165 153 166 171 171
214 241 237 229 240 241 248 235 248 263 304 337 90 322 318 305 110 137 152 147 144 151 159 152 144 148 150 151 153 153 153 148 153 145 124 108 91 89 92 88 155 192 177 167
238 245 245 244 245 229 253 248 241 253 264 271 163 250 277 242 151 149 149 143 146 148 151 151 151 154 157 160 156 147 139 130 128 127 137 140 143 155 184 176 171 191 176 162
244 236 234 239 242 231 237 250 244 243 223 266 275 158 271 218 189 217 171 157 157 153 156 155 155 155 156 155 152 144 132 131 136 137 142 142 140 149 131 117 120 135 156 161
246 249 222 228 244 234 230 299 323 340 85 266 245 171 249 223 196 194 173 161 156 151 151 150 145 136 134 139 138 136 135 137 146 150 150 148 153 146 130 144 162 176 187 192
279 277 262 212 246 285 161 103 14 345 353 251 243 168 232 238 195 175 163 158 162 158 149 142 143 148 147 147 144 142 144 149 157 155 157 163 172 166 163 170 184 185 186 205
245 279 266 239 205 211 214 151 167 199 224 261 283 200 246 249 191 157 149 151 155 152 149 150 157 161 163 158 153 152 157 160 164 161 165 169 170 165 175 174 179 196 201 205
204 261 284 272 241 181 202 197 179 158 210 234 254 230 326 31 66 106 120 134 148 150 150 151 151 149 157 157 160 160 160 159 166 166 167 174 166 170 182 187 186 192 207 203
167 263 286 290 339 319 176 176 107 124 172 233 253 217 217 208 196 132 125 136 145 147 145 144 144 139 142 153 151 152 155 165 164 163 167 166 177 180 186 185 191 192 204 208
87 196 298 326 245 237 26 79 118 139 167 169 218 255 218 187 181 165 144 136 139 145 145 143 143 136 124 119 126 140 152 148 155 166 164 165 181 186 181 191 206 202 202 199
321 127 269 266 259 212 165 171 148 157 230 172 172 257 279 168 171 157 148 146 145 145 143 138 132 123 113 111 113 123 139 156 171 173 166 175 176 175 194 211 224 214 205 203
78 92 5 333 336 359 35 250 159 148 140 156 160 237 302 84 105 131 139 142 138 137 134 127 124 128 129 129 128 128 136 165 169 158 160 171 181 191 217 230 239 225 211 207
104 107 163 204 244 281 315 337 14 111 148 180 188 196 239 181 142 138 139 142 134 138 135 133 135 145 143 144 146 138 128 152 164 159 163 174 197 211 224 228 234 233 221 213
86 97 268 255 255 335 11 352 360 63 175 172 194 183 217 213 176 165 146 135 126 129 136 142 145 147 146 141 140 134 139 165 169 163 175 198 209 213 219 231 239 236 226 221
76 124 359 326 341 37 25 8 21 26 47 140 131 173 282 71 101 126 142 138 133 139 144 144 142 144 149 152 148 144 158 181 174 179 200 204 202 207 217 232 236 239 231 221
95 107 86 280 303 37 10 341 62 68 43 118 144 201 112 69 83 141 149 136 139 142 142 141 150 158 161 164 158 149 164 170 153 188 207 207 213 219 224 229 231 237 236 224
151 123 137 245 17 171 243 328 82 89 54 61 87 97 107 120 215 164 126 133 136 135 140 145 145 146 151 151 145 147 147 143 158 186 212 211 215 230 238 226 226 238 238 234
152 139 122 108 112 261 305 352 347 103 52 41 94 84 74 66 51 17 9 123 152 152 152 152 154 148 138 142 143 133 138 143 154 195 222 225 215 221 237 240 238 236 234 243
69 96 111 115 136 218 272 319 326 100 85 356 75 99 92 70 62 287 316 11 130 124 131 129 123 108 120 142 127 118 137 153 207 229 228 229 218 218 229 235 238 233 230 237
25 42 101 140 176 254 300 320 2 100 230 279 81 110 106 130 205 233 301 314 170 136 131 126 124 133 169 157 122 122 153 224 245 248 241 243 232 227 227 228 230 240 243 244
78 69 100 116 152 257 320 18 64 218 265 306 330 111 89 324 262 151 232 253 201 124 121 126 134 161 192 158 140 156 232 248 255 263 268 265 256 249 251 231 238 238 229 236
67 168 154 156 205 251 309 95 216 179 308 300 293 310 94 72 326 284 205 194 201 190 179 160 160 176 209 202 170 189 240 245 240 268 275 276 279 268 250 227 234 245 229 217
339 44 88 85 272 291 336 3 10 31 329 297 257 184 114 159 250 238 198 206 216 231 211 192 181 194 221 229 214 215 237 235 217 243 265 272 279 279 279 255 235 231 234 224
316 23 34 292 289 339 343 341 337 359 358 353 349 339 295 186 216 203 204 215 216 220 230 203 192 207 229 233 235 235 233 223 228 248 262 271 267 266 270 272 261 246 241 227
314 159 169 238 252 237 271 292 324 339 334 331 334 327 328 292 242 217 216 227 227 218 217 214 216 225 237 233 241 249 238 214 213 244 258 251 255 268 265 269 308 321 293 273